Flag for Canada Weather past 2 weeks in Fort Smith, Northwest Territories, Canada

Now
16 °F

Light snow. Overcast.


Feels Like: 8 °F
Forecast: 7 / 14 °F
Wind: 5 mph from West

Location: Fort Smith

Current Time: Dec 22, 2014 at 10:38:36 PM

Latest Report: Dec 22, 2014 at 10:00 PM


Visibility: 15 mi

Pressure: 30.00 "Hg

Humidity: 86%

Dew point: 12 °F

Location of Fort SmithLocation

Historic Weather in Fort Smith — Graph

°F

Fort Smith temperature yesterday

Maximum temperature yesterday: 19 °F (at 12:00 AM)
Minimum temperature yesterday: 14 °F (at 5:00 AM)
Average temperature yesterday: 17 °F

Past Weeks' High & Low Weather Summary

 TemperatureHumidityPressure
High23 °F (Dec 9, 2:00 PM)100% (Dec 10, 12:00 AM)30.47 "Hg (Dec 10, 12:00 AM)
Low-8 °F (Dec 14, 7:00 PM)77% (Dec 12, 6:00 PM)29.29 "Hg (Dec 10, 12:00 AM)
Average11 °F88%29.83 "Hg
* Reported Dec 7 9:00 PM — Dec 22 9:00 PM, Fort Smith, Weather by CustomWeather, © 2014

Note: Actual official high and low records may vary slightly from our data, if they occured in-between our weather recording intervals... More about our weather records

Advertising

Fort Smith weather history for previous 24 hours

 ConditionsComfort  
Time TempWeatherWind HumidityBarometerVisibility
9:00 PM
Dec 22
16 °FLight snow. Overcast.3 mph86%29.99 "Hg15 mi
8:00 PM16 °FLight snow. Overcast.6 mph86%29.99 "Hg15 mi
7:00 PM14 °FLight snow. Overcast.2 mph92%29.98 "Hg15 mi
6:00 PM12 °FLight snow. Passing clouds.No wind92%29.98 "Hg15 mi
5:00 PM14 °FLight snow. Passing clouds.3 mph92%29.97 "Hg10 mi
4:00 PM16 °FLight snow. Passing clouds.3 mph93%29.96 "Hg4 mi
3:00 PM18 °FLight snow. Partly sunny.3 mph93%29.95 "Hg4 mi
2:00 PM18 °FLight snow. Low clouds.5 mph93%29.93 "Hg3 mi
1:00 PM18 °FLight snow. Ice fog.3 mph93%29.92 "Hg3 mi
12:00 PM18 °FLight snow. Ice fog.5 mph93%29.91 "Hg3 mi
11:00 AM18 °FSnow flurries. Ice fog.7 mph93%29.90 "Hg2 mi
10:00 AM18 °FIce fog.6 mph93%29.88 "Hg2 mi
9:00 AM18 °FIce fog.5 mph100%29.87 "Hg1 mi
8:00 AM18 °FSnow flurries. Ice fog.5 mph100%29.85 "Hg1 mi
7:47 AM18 °FIce fog.6 mph100%29.85 "Hg1 mi
7:00 AM18 °FSnow flurries. Ice fog.5 mph100%29.83 "Hg5 mi
6:00 AM18 °FLow clouds.7 mph100%29.82 "Hg15 mi
5:00 AM18 °FLow clouds.3 mph100%29.80 "Hg15 mi
4:00 AM18 °FSnow flurries. Low clouds.6 mph100%29.79 "Hg15 mi
3:00 AM18 °FSnow flurries. Low clouds.5 mph100%29.78 "Hg15 mi
2:00 AM18 °FSnow flurries. Low clouds.6 mph100%29.76 "Hg15 mi
1:00 AM18 °FLow clouds.5 mph93%29.75 "Hg15 mi
12:00 AM18 °FLow clouds.6 mph93%29.74 "Hg15 mi
11:00 PM
Dec 21
18 °FLow clouds.6 mph93%29.72 "Hg15 mi
10:00 PM18 °FLow clouds.5 mph93%29.71 "Hg15 mi
Weather by CustomWeather, © 2014

See weather overviewHow to use our weather pages